7 * 24
多渠道服务支持
STARLINK-37109(NORAD编号68666)是美国SpaceX公司星链(Starlink)星座中的一颗低轨互联网通信卫星,隶属于全球规模最大的商业卫星互联网项目。星链计划旨在通过部署近4.2万颗低轨卫星,为全球尤其是偏远区域提供高速低延迟的宽带网络服务,该卫星已随星链批次发射入轨,运行于近地轨道,承担互联网中继通信功能。 截至2026年4月,SpaceX已完成超万颗星链卫星发射,STARLINK-37109作为其中一员,支撑起星链覆盖全球150多个国家和地区的服务网络,同时该卫星也可支持应急通信与特定领域通信需求,但其部署也引发了业内对太空拥堵和天文观测干扰的相关讨论。
美国
(US)
| 数据来源 | 国际轨道数据 |
| 星历时间: | 2026-04-29T19:19:53+0800 5小时前 查看轨道信息 |
| 半长轴: | 6722.09km |
| 偏心率: | 0.0001312 |
| 轨道倾角: | 97.284° |
| 近地点辐角 | 87.404° |
| 升交点赤经 | 350.858° |
| 平近点角 | 272.738° |
| 近地点: | 343.071km |
| 远地点: | 344.835km |
| 周期: | 91.415分钟 |
| 每日圈数: | 15.752385 |